Time,TemperatureF,DewpointF,PressureIn,WindDirection,WindDirectionDegrees,WindSpeedMPH,WindSpeedGustMPH,Humidity,HourlyPrecipIn,Conditions,Clouds,dailyrainin,SoftwareType,DateUTC
2013-05-27 00:01:00,78.6,75.0,30.00,East,100,1.0,6.0,88,0.00,,,0.02,weatherlink.com 1.10,2013-05-27 04:01:00,
2013-05-27 00:16:00,78.6,75.0,30.00,ESE,114,2.0,5.0,89,0.00,,,0.02,weatherlink.com 1.10,2013-05-27 04:16:00,
2013-05-27 00:31:00,78.4,75.0,29.99,ENE,78,3.0,3.0,89,0.00,,,0.02,weatherlink.com 1.10,2013-05-27 04:31:00,
2013-05-27 00:46:00,78.4,75.0,29.99,ENE,58,1.0,7.0,90,0.01,,,0.03,weatherlink.com 1.10,2013-05-27 04:46:00,
2013-05-27 01:01:00,78.2,75.0,29.98,ESE,122,0.0,1.0,90,0.01,,,0.03,weatherlink.com 1.10,2013-05-27 05:01:00,
2013-05-27 01:16:00,77.6,75.0,29.98,ESE,117,1.0,2.0,91,0.01,,,0.03,weatherlink.com 1.10,2013-05-27 05:16:00,
2013-05-27 01:31:00,77.7,75.0,29.97,SE,131,1.0,5.0,91,0.01,,,0.03,weatherlink.com 1.10,2013-05-27 05:31:00,
2013-05-27 01:46:00,77.3,75.0,29.96,East,86,1.0,1.0,92,0.00,,,0.03,weatherlink.com 1.10,2013-05-27 05:46:00,
2013-05-27 02:01:00,76.7,74.0,29.96,SE,136,0.0,2.0,92,0.00,,,0.03,weatherlink.com 1.10,2013-05-27 06:01:00,
2013-05-27 02:16:00,76.4,74.0,29.96,East,93,0.0,5.0,92,0.00,,,0.03,weatherlink.com 1.10,2013-05-27 06:16:00,
2013-05-27 02:31:00,76.3,74.0,29.95,East,93,0.0,1.0,92,0.00,,,0.03,weatherlink.com 1.10,2013-05-27 06:31:00,
2013-05-27 02:46:00,76.2,74.0,29.95,East,93,0.0,1.0,92,0.00,,,0.03,weatherlink.com 1.10,2013-05-27 06:46:00,
2013-05-27 03:01:00,76.2,74.0,29.94,ESE,120,0.0,1.0,92,0.00,,,0.03,weatherlink.com 1.10,2013-05-27 07:01:00,
2013-05-27 03:16:00,75.7,74.0,29.95,ESE,120,0.0,0.0,93,0.00,,,0.03,weatherlink.com 1.10,2013-05-27 07:16:00,
2013-05-27 03:32:00,75.4,73.0,29.94,ESE,120,0.0,0.0,93,0.00,,,0.03,weatherlink.com 1.10,2013-05-27 07:32:00,
2013-05-27 03:47:00,75.3,74.0,29.94,ESE,120,0.0,1.0,94,0.00,,,0.03,weatherlink.com 1.10,2013-05-27 07:47:00,
2013-05-27 04:02:00,75.1,73.0,29.94,ESE,120,0.0,0.0,94,0.00,,,0.03,weatherlink.com 1.10,2013-05-27 08:02:00,
2013-05-27 04:17:00,74.9,73.0,29.95,ESE,120,0.0,1.0,94,0.00,,,0.03,weatherlink.com 1.10,2013-05-27 08:17:00,
2013-05-27 04:32:00,74.5,73.0,29.95,ESE,120,0.0,1.0,95,0.00,,,0.03,weatherlink.com 1.10,2013-05-27 08:32:00,
2013-05-27 04:47:00,74.7,73.0,29.95,ESE,120,0.0,1.0,95,0.00,,,0.03,weatherlink.com 1.10,2013-05-27 08:47:00,
2013-05-27 05:02:00,74.7,73.0,29.95,ESE,120,0.0,0.0,95,0.00,,,0.03,weatherlink.com 1.10,2013-05-27 09:02:00,
2013-05-27 05:17:00,74.8,73.0,29.95,ESE,120,0.0,1.0,95,0.00,,,0.03,weatherlink.com 1.10,2013-05-27 09:17:00,
2013-05-27 05:32:00,74.6,73.0,29.95,SE,133,0.0,1.0,95,0.00,,,0.03,weatherlink.com 1.10,2013-05-27 09:32:00,
2013-05-27 05:47:00,74.5,73.0,29.95,SE,129,0.0,1.0,95,0.00,,,0.03,weatherlink.com 1.10,2013-05-27 09:47:00,
2013-05-27 06:02:00,74.6,73.0,29.95,SE,130,0.0,1.0,95,0.00,,,0.03,weatherlink.com 1.10,2013-05-27 10:02:00,
2013-05-27 06:17:00,75.2,74.0,29.96,SE,129,0.0,1.0,95,0.00,,,0.03,weatherlink.com 1.10,2013-05-27 10:17:00,
2013-05-27 06:32:00,76.7,75.0,29.95,SE,129,0.0,1.0,95,0.00,,,0.03,weatherlink.com 1.10,2013-05-27 10:32:00,
2013-05-27 06:47:00,78.6,76.0,29.96,SE,131,0.0,2.0,91,0.00,,,0.03,weatherlink.com 1.10,2013-05-27 10:47:00,
2013-05-27 06:54:00,-999.0,-99.9,0.00,North,-999,-999.0,-999.0,-999,0.00,,,0.00,weatherlink.com 1.10,2013-05-27 10:54:00,
2013-05-27 07:08:00,79.0,75.0,29.96,East,95,1.0,6.0,88,0.00,,,0.00,weatherlink.com 1.10,2013-05-27 11:08:00,
2013-05-27 07:23:00,80.3,76.0,29.96,ESE,107,5.0,6.0,86,0.00,,,0.00,weatherlink.com 1.10,2013-05-27 11:23:00,
2013-05-27 07:38:00,81.0,76.0,29.97,East,101,4.0,7.0,84,0.00,,,0.00,weatherlink.com 1.10,2013-05-27 11:38:00,
2013-05-27 07:53:00,81.7,77.0,29.97,ENE,73,5.0,6.0,84,0.00,,,0.00,weatherlink.com 1.10,2013-05-27 11:53:00,
2013-05-27 08:08:00,81.5,76.0,29.97,ESE,107,4.0,7.0,84,0.00,,,0.00,weatherlink.com 1.10,2013-05-27 12:08:00,
2013-05-27 08:23:00,82.0,76.0,29.97,ENE,70,3.0,10.0,82,0.00,,,0.00,weatherlink.com 1.10,2013-05-27 12:23:00,
2013-05-27 08:38:00,82.1,76.0,29.97,ENE,70,4.0,10.0,82,0.00,,,0.00,weatherlink.com 1.10,2013-05-27 12:38:00,
2013-05-27 08:53:00,82.7,76.0,29.97,ESE,105,2.0,7.0,81,0.00,,,0.00,weatherlink.com 1.10,2013-05-27 12:53:00,
2013-05-27 09:08:00,83.2,76.0,29.97,ESE,109,6.0,11.0,79,0.00,,,0.00,weatherlink.com 1.10,2013-05-27 13:08:00,
2013-05-27 09:23:00,83.6,77.0,29.98,ENE,73,4.0,11.0,79,0.00,,,0.00,weatherlink.com 1.10,2013-05-27 13:23:00,
2013-05-27 09:38:00,84.1,77.0,29.98,East,79,3.0,10.0,78,0.00,,,0.00,weatherlink.com 1.10,2013-05-27 13:38:00,
2013-05-27 09:53:00,83.9,76.0,29.98,NE,40,3.0,10.0,78,0.00,,,0.00,weatherlink.com 1.10,2013-05-27 13:53:00,
2013-05-27 10:08:00,83.7,77.0,29.98,East,98,3.0,10.0,79,0.00,,,0.00,weatherlink.com 1.10,2013-05-27 14:08:00,
2013-05-27 10:23:00,83.0,78.0,29.98,East,94,2.0,10.0,84,0.00,,,0.00,weatherlink.com 1.10,2013-05-27 14:23:00,
2013-05-27 10:38:00,83.4,78.0,29.98,East,95,3.0,9.0,83,0.00,,,0.00,weatherlink.com 1.10,2013-05-27 14:38:00,
2013-05-27 10:54:00,84.8,77.0,29.98,East,92,5.0,9.0,78,0.00,,,0.00,weatherlink.com 1.10,2013-05-27 14:54:00,
2013-05-27 11:09:00,84.9,77.0,29.98,NE,51,4.0,9.0,77,0.00,,,0.00,weatherlink.com 1.10,2013-05-27 15:09:00,
2013-05-27 11:24:00,84.6,77.0,29.98,ENE,76,9.0,14.0,77,0.00,,,0.00,weatherlink.com 1.10,2013-05-27 15:24:00,
2013-05-27 11:39:00,85.4,77.0,29.98,ENE,58,4.0,10.0,76,0.00,,,0.00,weatherlink.com 1.10,2013-05-27 15:39:00,
2013-05-27 11:54:00,85.5,77.0,29.98,NE,56,8.0,12.0,76,0.00,,,0.00,weatherlink.com 1.10,2013-05-27 15:54:00,
2013-05-27 12:09:00,85.3,77.0,29.98,East,98,4.0,13.0,76,0.00,,,0.00,weatherlink.com 1.10,2013-05-27 16:09:00,
2013-05-27 12:24:00,85.8,77.0,29.98,ENE,70,5.0,12.0,74,0.00,,,0.00,weatherlink.com 1.10,2013-05-27 16:24:00,
2013-05-27 12:39:00,85.5,77.0,29.97,East,89,11.0,11.0,76,0.00,,,0.00,weatherlink.com 1.10,2013-05-27 16:39:00,
2013-05-27 12:54:00,84.9,77.0,29.97,ENE,65,5.0,14.0,76,0.00,,,0.00,weatherlink.com 1.10,2013-05-27 16:54:00,
2013-05-27 13:09:00,84.2,76.0,29.97,East,89,4.0,13.0,77,0.00,,,0.00,weatherlink.com 1.10,2013-05-27 17:09:00,
2013-05-27 13:24:00,84.5,77.0,29.97,East,91,9.0,12.0,78,0.00,,,0.00,weatherlink.com 1.10,2013-05-27 17:24:00,
2013-05-27 13:39:00,83.6,77.0,29.97,ESE,103,9.0,11.0,79,0.00,,,0.00,weatherlink.com 1.10,2013-05-27 17:39:00,
2013-05-27 13:55:00,81.3,77.0,29.97,ENE,58,7.0,10.0,87,0.05,,,0.05,weatherlink.com 1.10,2013-05-27 17:55:00,
2013-05-27 14:09:00,80.5,77.0,29.96,ESE,104,5.0,10.0,89,0.06,,,0.06,weatherlink.com 1.10,2013-05-27 18:09:00,
2013-05-27 14:24:00,80.6,77.0,29.96,East,91,5.0,17.0,88,0.10,,,0.10,weatherlink.com 1.10,2013-05-27 18:24:00,
2013-05-27 14:39:00,78.9,77.0,29.96,SE,138,5.0,10.0,93,0.20,,,0.20,weatherlink.com 1.10,2013-05-27 18:39:00,
2013-05-27 14:54:00,77.2,75.0,29.97,ESE,107,3.0,14.0,94,0.63,,,0.68,weatherlink.com 1.10,2013-05-27 18:54:00,
2013-05-27 15:09:00,77.7,76.0,29.96,East,80,4.0,6.0,95,0.92,,,0.98,weatherlink.com 1.10,2013-05-27 19:09:00,
2013-05-27 15:24:00,77.3,76.0,29.95,NW,316,2.0,9.0,96,1.55,,,1.66,weatherlink.com 1.10,2013-05-27 19:24:00,
2013-05-27 15:39:00,77.6,76.0,29.95,ENE,72,3.0,12.0,96,1.69,,,1.91,weatherlink.com 1.10,2013-05-27 19:39:00,
2013-05-27 15:54:00,77.3,76.0,29.95,East,86,0.0,6.0,95,1.33,,,2.05,weatherlink.com 1.10,2013-05-27 19:54:00,
2013-05-27 16:09:00,77.7,77.0,29.94,SE,124,0.0,3.0,96,1.05,,,2.05,weatherlink.com 1.10,2013-05-27 20:09:00,
2013-05-27 16:24:00,78.1,77.0,29.93,ESE,123,1.0,3.0,96,0.44,,,2.11,weatherlink.com 1.10,2013-05-27 20:24:00,
2013-05-27 16:39:00,77.8,77.0,29.93,NE,51,1.0,2.0,96,0.23,,,2.16,weatherlink.com 1.10,2013-05-27 20:39:00,
2013-05-27 16:50:00,77.8,76.6,29.93,NE,47,1.0,1.0,96,0.07,,,2.17,Wunderground v.1.15,2013-05-27 20:50:00,
2013-05-27 17:00:00,78.0,76.8,29.93,East,90,0.0,3.0,96,0.00,,,2.17,Wunderground v.1.15,2013-05-27 21:00:00,
2013-05-27 17:05:00,78.0,76.8,29.93,East,90,0.0,3.0,96,0.27,,,2.20,Wunderground v.1.15,2013-05-27 21:05:00,
2013-05-27 17:15:00,78.1,77.2,29.93,East,94,1.0,1.0,97,0.05,,,2.20,Wunderground v.1.15,2013-05-27 21:15:00,
2013-05-27 17:20:00,78.0,76.8,29.93,East,83,1.0,2.0,96,0.15,,,2.21,Wunderground v.1.15,2013-05-27 21:20:00,
2013-05-27 17:25:00,78.0,77.0,29.93,East,80,2.0,3.0,96,0.14,,,2.22,weatherlink.com 1.10,2013-05-27 21:25:00,
2013-05-27 17:35:00,77.9,76.7,29.93,ESE,103,2.0,2.0,96,0.13,,,2.24,Wunderground v.1.15,2013-05-27 21:35:00,
2013-05-27 17:45:00,77.9,77.0,29.93,East,98,2.0,3.0,97,0.14,,,2.27,Wunderground v.1.15,2013-05-27 21:45:00,
2013-05-27 17:50:00,78.0,77.1,29.93,East,82,1.0,2.0,97,0.08,,,2.28,Wunderground v.1.15,2013-05-27 21:50:00,
2013-05-27 17:55:00,77.9,76.7,29.93,ESE,107,1.0,2.0,96,0.51,,,2.32,Wunderground v.1.15,2013-05-27 21:55:00,
2013-05-27 18:05:00,76.5,74.6,29.94,East,93,6.0,6.0,94,2.01,,,2.56,Wunderground v.1.15,2013-05-27 22:05:00,
2013-05-27 18:11:00,75.7,74.0,29.95,East,94,7.0,13.0,95,0.36,,,2.56,weatherlink.com 1.10,2013-05-27 22:11:00,
2013-05-27 18:20:00,74.9,73.4,29.96,East,89,5.0,5.0,95,1.15,,,2.76,Wunderground v.1.15,2013-05-27 22:20:00,
2013-05-27 18:30:00,73.9,72.4,29.96,East,81,4.0,18.0,95,0.23,,,2.82,Wunderground v.1.15,2013-05-27 22:30:00,
2013-05-27 18:40:00,74.1,73.0,29.95,ESE,103,4.0,6.0,96,0.58,,,2.84,weatherlink.com 1.10,2013-05-27 22:40:00,
2013-05-27 18:45:00,74.5,73.3,29.95,ESE,108,3.0,18.0,96,0.14,,,2.85,Wunderground v.1.15,2013-05-27 22:45:00,
2013-05-27 18:50:00,74.8,73.6,29.96,ESE,111,3.0,3.0,96,0.09,,,2.85,Wunderground v.1.15,2013-05-27 22:50:00,
2013-05-27 19:00:00,75.1,74.2,29.95,ESE,104,2.0,18.0,97,0.07,,,2.86,Wunderground v.1.15,2013-05-27 23:00:00,
2013-05-27 19:05:00,75.2,74.0,29.95,East,100,2.0,18.0,96,0.06,,,2.87,Wunderground v.1.15,2013-05-27 23:05:00,
2013-05-27 19:11:00,75.4,75.0,29.95,East,101,0.0,3.0,97,0.30,,,2.87,weatherlink.com 1.10,2013-05-27 23:11:00,
2013-05-27 19:20:00,75.5,74.6,29.96,ESE,120,0.0,2.0,97,0.05,,,2.88,Wunderground v.1.15,2013-05-27 23:20:00,
2013-05-27 19:25:00,75.4,74.2,29.96,ESE,120,0.0,2.0,96,0.06,,,2.89,Wunderground v.1.15,2013-05-27 23:25:00,
2013-05-27 19:30:00,75.3,74.4,29.96,ESE,120,0.0,2.0,97,0.06,,,2.89,Wunderground v.1.15,2013-05-27 23:30:00,
2013-05-27 19:35:00,75.3,74.4,29.96,East,82,0.0,2.0,97,0.07,,,2.90,Wunderground v.1.15,2013-05-27 23:35:00,
2013-05-27 19:40:00,75.4,74.5,29.96,East,82,1.0,2.0,97,0.08,,,2.91,Wunderground v.1.15,2013-05-27 23:40:00,
2013-05-27 19:45:00,75.5,74.6,29.96,ENE,72,1.0,2.0,97,0.12,,,2.92,Wunderground v.1.15,2013-05-27 23:45:00,
2013-05-27 19:55:00,75.7,74.8,29.96,ESE,113,3.0,5.0,97,0.11,,,2.93,Wunderground v.1.15,2013-05-27 23:55:00,
2013-05-27 20:05:00,75.6,74.4,29.96,East,82,3.0,6.0,96,0.06,,,2.94,Wunderground v.1.15,2013-05-28 00:05:00,
2013-05-27 20:11:00,75.6,74.0,29.97,ENE,77,2.0,4.0,96,0.08,,,2.95,weatherlink.com 1.10,2013-05-28 00:11:00,
2013-05-27 20:20:00,75.4,74.2,29.97,ENE,70,1.0,6.0,96,0.05,,,2.95,Wunderground v.1.15,2013-05-28 00:20:00,
2013-05-27 20:27:00,75.3,74.0,29.97,ENE,58,1.0,3.0,96,0.07,,,2.96,weatherlink.com 1.10,2013-05-28 00:27:00,
2013-05-27 20:35:00,75.5,74.6,29.97,East,91,1.0,6.0,97,0.04,,,2.96,Wunderground v.1.15,2013-05-28 00:35:00,
2013-05-27 20:40:00,75.5,74.3,29.97,ESE,107,1.0,1.0,96,0.00,,,2.96,Wunderground v.1.15,2013-05-28 00:40:00,
2013-05-27 20:45:00,75.4,74.5,29.97,ESE,115,1.0,6.0,97,0.00,,,2.97,Wunderground v.1.15,2013-05-28 00:45:00,
2013-05-27 20:55:00,75.6,74.7,29.97,East,83,1.0,6.0,97,0.00,,,2.97,Wunderground v.1.15,2013-05-28 00:55:00,
2013-05-27 21:00:00,75.7,74.8,29.97,NE,56,2.0,6.0,97,0.00,,,2.97,Wunderground v.1.15,2013-05-28 01:00:00,
2013-05-27 21:10:00,75.5,74.3,29.99,ESE,106,4.0,5.0,96,0.00,,,2.97,Wunderground v.1.15,2013-05-28 01:10:00,
2013-05-27 21:15:00,75.2,74.0,30.00,ENE,61,5.0,6.0,96,0.00,,,2.97,Wunderground v.1.15,2013-05-28 01:15:00,
2013-05-27 21:20:00,74.9,73.4,30.00,East,86,5.0,5.0,95,0.00,,,2.97,Wunderground v.1.15,2013-05-28 01:20:00,
2013-05-27 21:27:00,74.6,73.0,30.00,ENE,58,3.0,8.0,95,0.01,,,2.97,weatherlink.com 1.10,2013-05-28 01:27:00,
2013-05-27 21:35:00,74.1,72.6,30.00,East,96,3.0,4.0,95,0.00,,,2.97,Wunderground v.1.15,2013-05-28 01:35:00,
2013-05-27 21:42:00,74.2,73.0,29.99,East,91,0.0,3.0,96,0.00,,,2.97,weatherlink.com 1.10,2013-05-28 01:42:00,
2013-05-27 21:50:00,74.3,73.1,30.00,SE,131,0.0,3.0,96,0.00,,,2.97,Wunderground v.1.15,2013-05-28 01:50:00,
2013-05-27 21:55:00,74.4,73.2,30.00,SE,131,0.0,3.0,96,0.00,,,2.97,Wunderground v.1.15,2013-05-28 01:55:00,
2013-05-27 22:00:00,74.4,73.2,30.00,SE,131,0.0,3.0,96,0.00,,,2.97,Wunderground v.1.15,2013-05-28 02:00:00,
2013-05-27 22:05:00,74.4,73.2,30.00,East,89,0.0,3.0,96,0.00,,,2.97,Wunderground v.1.15,2013-05-28 02:05:00,
2013-05-27 22:12:00,74.6,73.0,30.00,East,89,1.0,2.0,96,0.00,,,2.97,weatherlink.com 1.10,2013-05-28 02:12:00,
2013-05-27 22:20:00,74.6,73.4,30.01,ESE,117,1.0,1.0,96,0.00,,,2.97,Wunderground v.1.15,2013-05-28 02:20:00,
2013-05-27 22:25:00,74.7,73.5,30.01,ESE,120,1.0,1.0,96,0.00,,,2.97,Wunderground v.1.15,2013-05-28 02:25:00,
2013-05-27 22:35:00,74.8,73.6,30.02,ESE,120,0.0,1.0,96,0.00,,,2.97,Wunderground v.1.15,2013-05-28 02:35:00,
2013-05-27 22:40:00,74.8,73.6,30.02,ESE,122,0.0,1.0,96,0.00,,,2.98,Wunderground v.1.15,2013-05-28 02:40:00,
2013-05-27 22:50:00,74.8,73.6,30.02,WSW,247,0.0,1.0,96,0.00,,,2.98,Wunderground v.1.15,2013-05-28 02:50:00,
2013-05-27 22:55:00,74.6,73.4,30.02,WSW,246,0.0,1.0,96,0.00,,,2.98,Wunderground v.1.15,2013-05-28 02:55:00,
2013-05-27 23:05:00,74.4,73.2,30.02,WSW,242,0.0,3.0,96,0.00,,,2.98,Wunderground v.1.15,2013-05-28 03:05:00,
2013-05-27 23:10:00,74.4,73.2,30.01,WSW,256,1.0,1.0,96,0.00,,,2.99,Wunderground v.1.15,2013-05-28 03:10:00,
2013-05-27 23:20:00,74.4,73.5,30.01,WSW,243,1.0,1.0,97,0.00,,,2.99,Wunderground v.1.15,2013-05-28 03:20:00,
2013-05-27 23:27:00,74.5,74.0,30.00,WSW,243,0.0,2.0,97,0.03,,,3.00,weatherlink.com 1.10,2013-05-28 03:27:00,
2013-05-27 23:35:00,74.6,73.7,30.00,WSW,253,1.0,2.0,97,0.00,,,3.00,Wunderground v.1.15,2013-05-28 03:35:00,
2013-05-27 23:40:00,74.6,73.7,30.00,West,266,1.0,2.0,97,0.00,,,3.00,Wunderground v.1.15,2013-05-28 03:40:00,
2013-05-27 23:45:00,74.6,73.4,30.00,West,264,1.0,2.0,96,0.00,,,3.00,Wunderground v.1.15,2013-05-28 03:45:00,
2013-05-27 23:55:00,74.8,73.6,29.99,WNW,299,1.0,2.0,96,0.00,,,3.00,Wunderground v.1.15,2013-05-28 03:55:00,